Fulton Cnty AP, Rochester, IN, IN

3:44 PM EST on November 22, 2017 (GMT -0500)
Fulton County

Weather History for KRCR - December, 2013

Change the Weather History Date:

Wednesday, December 11, 2013

  Actual Average Record
Temperature  
Mean Temperature 18 °F -  
Max Temperature 28 °F 35 °F 60 °F (2015)
Min Temperature 6 °F 20 °F 6 °F (2013)
Degree Days  
Heating Degree Days 47    
Moisture  
Dew Point 13 °F    
Average Humidity 74    
Maximum Humidity 93    
Minimum Humidity 62    
Precipitation  
Precipitation 0.02 in - - ()
Sea Level Pressure  
Sea Level Pressure 30.36 in    
Wind  
Wind Speed 6 mph (West)    
Max Wind Speed 16 mph    
Max Gust Speed 21 mph    
Visibility 7 miles    
Events Snow    
Averages and records for this station are not official NWS values.
T = Trace of Precipitation, MM = Missing Value Source: NWS Daily Summary

Daily Weather History Graph

Daily Weather History Graph

Search for Another Location

Airport or City:

Trip Planner

Search our weather history database for the weather conditions in past years. The results will help you decide how hot, cold, wet, or windy it might be!

Date:

Astronomy

Dec. 11, 2013 Rise Set
Actual Time 7:59 AM EST 5:16 PM EST
Civil Twilight 7:28 AM EST 5:47 PM EST
Nautical Twilight 6:54 AM EST 6:21 PM EST
Astronomical Twilight 6:20 AM EST 6:55 PM EST
Moon 1:51 PM EST (12/11) 2:18 AM EST (12/11)
Length of Visible Light 10h 18m
Length of Day
9h 16m
Waxing Gibbous, 71% of the Moon is Illuminated
Dec 11
Waxing Gibbous
Dec 17
Full
Dec 25
Last Quarter
Jan 1
New
Jan 7
First Quarter

Hourly Weather History & Observations

Time (EST) Temp. Windchill Dew Point Humidity Pressure Visibility Wind Dir Wind Speed Gust Speed Precip Events Conditions
12:15 AM 19.4 °F 11.5 °F 10.4 °F 68% 30.30 in 10.0 mi West 5.8 mph - N/A   Clear
12:35 AM 19.4 °F 11.5 °F 10.4 °F 68% 30.30 in 10.0 mi WSW 5.8 mph - N/A   Clear
12:55 AM 19.4 °F 12.8 °F 10.4 °F 68% 30.30 in 10.0 mi WSW 4.6 mph - N/A   Clear
1:15 AM 19.4 °F 14.3 °F 10.4 °F 68% 30.29 in 10.0 mi West 3.5 mph - N/A   Clear
1:35 AM 19.4 °F 14.3 °F 10.4 °F 68% 30.29 in 10.0 mi West 3.5 mph - N/A   Clear
1:55 AM 19.4 °F 12.8 °F 10.4 °F 68% 30.28 in 10.0 mi West 4.6 mph - N/A   Clear
2:15 AM 19.4 °F 12.8 °F 10.4 °F 68% 30.29 in 10.0 mi West 4.6 mph - N/A   Clear
2:35 AM 19.4 °F 12.8 °F 10.4 °F 68% 30.29 in 10.0 mi West 4.6 mph - N/A   Clear
2:55 AM 21.2 °F 13.6 °F 10.4 °F 63% 30.30 in 10.0 mi West 5.8 mph - N/A   Clear
3:15 AM 21.2 °F 12.6 °F 10.4 °F 63% 30.31 in 10.0 mi West 6.9 mph - N/A   Clear
3:35 AM 21.2 °F 12.6 °F 10.4 °F 63% 30.30 in 10.0 mi WNW 6.9 mph - N/A   Clear
3:55 AM 21.2 °F 16.4 °F 10.4 °F 63% 30.30 in 10.0 mi West 3.5 mph - N/A   Scattered Clouds
4:15 AM 21.2 °F 14.9 °F 10.4 °F 63% 30.30 in 10.0 mi WSW 4.6 mph - N/A   Scattered Clouds
4:35 AM 21.2 °F 13.6 °F 12.2 °F 68% 30.29 in 10.0 mi SW 5.8 mph - N/A   Mostly Cloudy
4:55 AM 21.2 °F 12.6 °F 14.0 °F 74% 30.29 in 5.0 mi SW 6.9 mph - N/A Snow Light Snow
5:15 AM 19.4 °F 11.5 °F 14.0 °F 80% 30.29 in 3.0 mi SW 5.8 mph - N/A Snow Light Snow
5:35 AM 19.4 °F 10.4 °F 14.0 °F 80% 30.29 in 1.8 mi SW 6.9 mph - N/A Snow Light Snow
5:55 AM 19.4 °F 10.4 °F 15.8 °F 86% 30.29 in 1.8 mi SW 6.9 mph - N/A Snow Light Snow
6:15 AM 19.4 °F 14.3 °F 15.8 °F 86% 30.29 in 1.8 mi SW 3.5 mph - N/A Snow Light Snow
6:35 AM 19.4 °F 14.3 °F 15.8 °F 86% 30.28 in 1.5 mi SSW 3.5 mph - N/A Snow Light Snow
6:55 AM 19.4 °F 10.4 °F 17.6 °F 93% 30.29 in 1.5 mi SSW 6.9 mph - N/A Snow Light Snow
7:15 AM 21.2 °F 13.6 °F 17.6 °F 86% 30.30 in 1.5 mi SSW 5.8 mph - N/A Snow Light Snow
7:35 AM 21.2 °F 13.6 °F 17.6 °F 86% 30.31 in 1.2 mi SW 5.8 mph - N/A Snow Light Snow
7:55 AM 21.2 °F 14.9 °F 17.6 °F 86% 30.31 in 1.2 mi SW 4.6 mph - N/A Snow Light Snow
8:15 AM 21.2 °F 16.4 °F 17.6 °F 86% 30.31 in 0.5 mi WSW 3.5 mph - N/A Snow Snow
8:35 AM 21.2 °F - 17.6 °F 86% 30.31 in 0.5 mi Calm Calm - N/A Snow Snow
8:55 AM 21.2 °F - 17.6 °F 86% 30.32 in 0.5 mi Calm Calm - N/A Snow Snow
9:15 AM 21.2 °F - 17.6 °F 86% 30.33 in 0.2 mi Calm Calm - 0.01 in Snow Snow
9:35 AM 21.2 °F 14.9 °F 17.6 °F 86% 30.34 in 0.5 mi WSW 4.6 mph - 0.01 in Snow Light Snow
9:55 AM 21.2 °F 16.4 °F 17.6 °F 86% 30.35 in 0.8 mi West 3.5 mph - 0.01 in Snow Light Snow
10:15 AM 23.0 °F 18.4 °F 17.6 °F 80% 30.35 in 0.8 mi WNW 3.5 mph - N/A Snow Light Snow
10:35 AM 23.0 °F 18.4 °F 17.6 °F 80% 30.34 in 0.8 mi West 3.5 mph - N/A Snow Light Snow
10:55 AM 23.0 °F 18.4 °F 17.6 °F 80% 30.34 in 1.0 mi NW 3.5 mph - N/A Snow Light Snow
11:15 AM 23.0 °F - 19.4 °F 86% 30.33 in 1.2 mi Calm Calm - N/A Snow Light Snow
11:35 AM 23.0 °F 17.0 °F 19.4 °F 86% 30.33 in 1.0 mi NW 4.6 mph - N/A Snow Light Snow
11:55 AM 23.0 °F 17.0 °F 19.4 °F 86% 30.32 in 1.8 mi NNW 4.6 mph - N/A Snow Light Snow
12:15 PM 24.8 °F 16.9 °F 19.4 °F 80% 30.32 in 7.0 mi NW 6.9 mph - N/A Snow Light Snow
12:35 PM 26.6 °F 18.2 °F 19.4 °F 74% 30.32 in 4.0 mi WNW 8.1 mph - 0.01 in Snow Light Snow
12:55 PM 26.6 °F 20.0 °F 19.4 °F 74% 30.32 in 3.0 mi WNW 5.8 mph - 0.01 in Snow Light Snow
1:15 PM 26.6 °F 18.2 °F 19.4 °F 74% 30.31 in 4.0 mi WNW 8.1 mph - N/A Snow Light Snow
1:35 PM 26.6 °F 17.5 °F 19.4 °F 74% 30.32 in 10.0 mi WNW 9.2 mph - N/A   Scattered Clouds
1:55 PM 26.6 °F 15.7 °F 19.4 °F 74% 30.32 in 5.0 mi WNW 12.7 mph 16.1 mph N/A Snow Light Snow
2:15 PM 26.6 °F 16.2 °F 19.4 °F 74% 30.32 in 7.0 mi WNW 11.5 mph 17.3 mph N/A Snow Light Snow
2:35 PM 26.6 °F 16.2 °F 19.4 °F 74% 30.32 in 10.0 mi WNW 11.5 mph 17.3 mph N/A   Scattered Clouds
2:55 PM 28.4 °F 17.5 °F 17.6 °F 64% 30.33 in 10.0 mi WNW 13.8 mph 18.4 mph N/A   Mostly Cloudy
3:15 PM 26.6 °F 16.2 °F 17.6 °F 69% 30.34 in 10.0 mi WNW 11.5 mph - N/A   Mostly Cloudy
3:35 PM 26.6 °F 16.2 °F 17.6 °F 69% 30.35 in 10.0 mi WNW 11.5 mph 19.6 mph N/A Snow Light Snow
3:55 PM 24.8 °F 12.9 °F 17.6 °F 74% 30.36 in 10.0 mi WNW 13.8 mph - N/A Snow Light Snow
4:15 PM 24.8 °F 11.9 °F 14.0 °F 64% 30.38 in 10.0 mi WNW 16.1 mph 20.7 mph N/A   Scattered Clouds
4:35 PM 23.0 °F 11.7 °F 12.2 °F 63% 30.39 in 10.0 mi WNW 11.5 mph 20.7 mph N/A   Clear
4:55 PM 23.0 °F 11.1 °F 12.2 °F 63% 30.39 in 5.0 mi WNW 12.7 mph - N/A Snow Light Snow
5:15 PM 21.2 °F 10.9 °F 10.4 °F 63% 30.40 in 10.0 mi WNW 9.2 mph 18.4 mph N/A Snow Light Snow
5:35 PM 21.2 °F 14.9 °F 10.4 °F 63% 30.41 in 10.0 mi WNW 4.6 mph - N/A   Clear
5:55 PM 19.4 °F 10.4 °F 12.2 °F 74% 30.42 in 10.0 mi WNW 6.9 mph - N/A   Clear
6:15 PM 19.4 °F 10.4 °F 10.4 °F 68% 30.43 in 10.0 mi WNW 6.9 mph - N/A   Clear
6:35 PM 17.6 °F 9.3 °F 10.4 °F 73% 30.44 in 10.0 mi WNW 5.8 mph - N/A   Clear
6:55 PM 17.6 °F 9.3 °F 10.4 °F 73% 30.45 in 10.0 mi WNW 5.8 mph - N/A   Clear
7:15 PM 17.6 °F 9.3 °F 10.4 °F 73% 30.45 in 10.0 mi West 5.8 mph - N/A   Mostly Cloudy
7:35 PM 19.4 °F 11.5 °F 10.4 °F 68% 30.47 in 10.0 mi West 5.8 mph - N/A   Mostly Cloudy
7:55 PM 17.6 °F 10.7 °F 10.4 °F 73% 30.47 in 10.0 mi West 4.6 mph - N/A   Scattered Clouds
8:15 PM 14.0 °F 5.1 °F 10.4 °F 86% 30.48 in 10.0 mi West 5.8 mph - N/A   Clear
8:35 PM 14.0 °F 2.9 °F 8.6 °F 79% 30.48 in 10.0 mi West 8.1 mph - N/A   Clear
8:55 PM 14.0 °F 5.1 °F 6.8 °F 73% 30.49 in 10.0 mi West 5.8 mph - N/A   Clear
9:15 PM 12.2 °F 0.7 °F 5.0 °F 73% 30.49 in 10.0 mi West 8.1 mph - N/A   Clear
9:35 PM 12.2 °F 1.7 °F 3.2 °F 67% 30.49 in 10.0 mi West 6.9 mph - N/A   Clear
9:55 PM 12.2 °F 0.7 °F 3.2 °F 67% 30.49 in 10.0 mi WNW 8.1 mph - N/A   Clear
10:15 PM 12.2 °F 1.7 °F 1.4 °F 62% 30.49 in 10.0 mi West 6.9 mph - N/A   Clear
10:35 PM 10.4 °F -0.4 °F 1.4 °F 67% 30.49 in 10.0 mi WNW 6.9 mph - N/A   Clear
10:55 PM 10.4 °F -0.4 °F 1.4 °F 67% 30.50 in 10.0 mi West 6.9 mph - N/A   Clear
11:15 PM 8.6 °F -1.3 °F -0.4 °F 67% 30.50 in 10.0 mi West 5.8 mph - N/A   Clear
11:35 PM 8.6 °F -2.6 °F -0.4 °F 67% 30.50 in 10.0 mi West 6.9 mph - N/A   Clear
11:55 PM 6.8 °F -4.8 °F -2.2 °F 67% 30.51 in 10.0 mi West 6.9 mph - N/A   Clear